Showing default

DELFI-N3XT, 39428

Orbit data source: Space-Track

DELFI-N3XT, 39428 is a payload satellite owned by TU Delft (NL) in SSO that was launched on Thu, 21 Nov 2013 UTC via a DNEPR launch vehicle from the Orenburg, Russia (OREN). Payload-class satellites include a variety of spacecraft equipped with specific instruments for various scientific and technological missions. These include communications satellites like Starlink; space stations such as the ISS; scientific satellites like the Hubble; Earth observation satellites from companies like Planet Labs, Umbra, and HawkEye 360; GPS; miniature CubeSats for education and research; and military/defense satellites.

Loading next visibility...
Identifier
39428, 2013-066N
Orbit
SSO
Country
Flag of UnknownUnknown / NETH
Related business
Manufacturer
TU Delft
Mission
Non-operational Amateur Technology
Bus & Motor
CUBESAT 3U, Unknown motor
Mass
3.5 kg wet, 3.5 kg dry
Launch date (UTC)
2013-11-21 (12 years ago)
Launch vehicle
DNEPR
Launch site
Orenburg, Russia (OREN)
Object type
Payload
Rocket body
Debris
Shape & HBR
Box + 4 Pan, 0.1 m
Radar Cross Section
0.075 m², Medium (>0.1 m² and < 1m²)

Expand to show TLE details & history
Last TLE update: 11 hours ago

TLE from 11 hours ago
0 DELFI-N3XT
1 39428U 13066N   25300.51194191  .00009727  00000-0  93710-3 0  9991
2 39428  97.8297 216.7325 0078738 259.0356 100.1997 14.90804260639907
Epoch: 2025-10-27T12:17Z
TLE epoch observation values (Epoch: 2025-10-27T12:17:11.781Z)
Latitude
0.00003°
Longitude
-3.67932°
Altitude
608.608 km
Speed
7.549 km/s
True Right ascension
14h 26m 55s
True Declination
0° 00' 00"
Sunlit
Object was in daylight at epoch
Visualization orbit readout
Latitude
Unknown
Longitude
Unknown
Altitude
Unknown
Speed
Unknown
Apparent Right ascension
Unknown
Apparent Declination
Unknown
Sunlit
N/A
Visualization observer readout
Local Sidereal Time
18:16:11
Azimuth
Unknown
Elevation
Unknown
Doppler factor
Unknown
Orbital elements
Apogee altitude
647.334 km
Perigee altitude
537.564 km
Semi-major axis
6,970.586 km
Eccentricity
0.00787
Inclination
97.8297°
RAAN
216.7325°
Arg. of periapsis
259.0356°
True anomaly
101.08613°
Mean anomaly
100.1997°
Eccentric anomaly
100.64307°
Mean motion
3.7294 °/min
Orbital period
96.53 mins
BSTAR
0.0009371
Loading maneuver chart data...
Computing Atmospheric mass density...
Loading historical data...
Loading historical data...
Loading historical data...
Loading historical data...
Loading historical data...
Loading historical data...
Loading historical data...

Documentation

Showing up to 5 results
|